When you browse on this site, cookies collect data to enhance your experience and personalize the content and advertising you see.
Visit our Privacy Policy to learn more. By continuing to use the site, you agree to this use of cookies and data.
  • In France
  • List of Countries
  • For 7 days
  • Water Temperature
  • Weather Map
  • Weather Widgets
  • user-avatar
    Login

    Hourly Weather Bukavu

    Today, 23 August, Friday

    Time Temperature Precipitation Wind Pressure Humidity
    00:00 +18°C° 0.2 mm 0 mps 690 mmHg 98%
    01:00 +18°C° 0.2 mm 0 mps 689 mmHg 98%
    02:00 +18°C° 0.2 mm 0 mps 689 mmHg 98%
    03:00 +18°C° 0 mm 0 mps 689 mmHg 98%
    04:00 +17°C° 0 mm 0 mps 689 mmHg 98%
    05:00 +17°C° 0 mm 0 mps 689 mmHg 98%
    06:00 +19°C° 0 mm 0 mps 690 mmHg 96%
    07:00 +20°C° 0 mm 0 mps 690 mmHg 94%
    08:00 +21°C° 0 mm 0 mps 691 mmHg 92%
    09:00 +24°C° 0.1 mm 0 mps 691 mmHg 80%
    10:00 +26°C° 0.1 mm 0 mps 691 mmHg 68%
    11:00 +31°C° 0.1 mm 1 mps 692 mmHg 56%
    12:00 +30°C° 1 mm 1 mps 691 mmHg 62%
    13:00 +29°C° 1 mm 1 mps 690 mmHg 67%
    14:00 +28°C° 1 mm 1 mps 689 mmHg 73%
    15:00 +27°C° 1.6 mm 1 mps 688 mmHg 80%
    16:00 +25°C° 1.6 mm 1 mps 688 mmHg 88%
    17:00 +23°C° 1.6 mm 1 mps 687 mmHg 95%
    18:00 +23°C° 2.1 mm 1 mps 688 mmHg 96%
    19:00 +22°C° 2.1 mm 1 mps 689 mmHg 97%
    20:00 +20°C° 2.1 mm 2 mps 689 mmHg 98%
    21:00 +21°C° 0.5 mm 1 mps 689 mmHg 98%
    22:00 +21°C° 0.5 mm 1 mps 690 mmHg 98%
    23:00 +18°C° 0.5 mm 0 mps 690 mmHg 99%

    Tomorrow, 24 August, Saturday

    Time Temperature Precipitation Wind Pressure Humidity
    00:00 +18°C° 0.1 mm 0 mps 690 mmHg 99%
    01:00 +18°C° 0.1 mm 0 mps 689 mmHg 99%
    02:00 +18°C° 0.1 mm 0 mps 689 mmHg 99%
    03:00 +18°C° 0.5 mm 0 mps 689 mmHg 99%
    04:00 +18°C° 0.5 mm 0 mps 689 mmHg 99%
    05:00 +17°C° 0.5 mm 0 mps 689 mmHg 99%
    06:00 +18°C° 0.3 mm 0 mps 690 mmHg 97%
    07:00 +19°C° 0.3 mm 0 mps 690 mmHg 96%
    08:00 +20°C° 0.3 mm 0 mps 691 mmHg 95%
    09:00 +20°C° 0 mm 0 mps 691 mmHg 94%
    10:00 +21°C° 0 mm 0 mps 691 mmHg 93%
    11:00 +21°C° 0 mm 0 mps 690 mmHg 92%
    12:00 +25°C° 0.3 mm 1 mps 690 mmHg 83%
    13:00 +27°C° 0.3 mm 1 mps 690 mmHg 75%
    14:00 +28°C° 0.3 mm 1 mps 689 mmHg 67%
    15:00 +28°C° 0.4 mm 1 mps 689 mmHg 71%
    16:00 +25°C° 0.4 mm 0 mps 688 mmHg 75%
    17:00 +25°C° 0.4 mm 0 mps 688 mmHg 79%
    18:00 +23°C° 0.6 mm 0 mps 688 mmHg 84%
    19:00 +22°C° 0.6 mm 0 mps 688 mmHg 89%
    20:00 +20°C° 0.6 mm 0 mps 689 mmHg 94%
    21:00 +20°C° 0.2 mm 0 mps 689 mmHg 95%
    22:00 +19°C° 0.2 mm 0 mps 689 mmHg 97%
    23:00 +21°C° 0.2 mm 1 mps 689 mmHg 98%

    Day after tomorrow, 25 August, Sunday

    Time Temperature Precipitation Wind Pressure Humidity
    00:00 +19°C° 0 mm 0 mps 689 mmHg 98%
    01:00 +18°C° 0 mm 0 mps 689 mmHg 98%
    02:00 +18°C° 0 mm 0 mps 689 mmHg 98%
    03:00 +18°C° 0 mm 0 mps 688 mmHg 98%
    04:00 +18°C° 0 mm 0 mps 688 mmHg 98%
    05:00 +18°C° 0 mm 0 mps 688 mmHg 98%
    06:00 +19°C° 0 mm 0 mps 689 mmHg 96%
    07:00 +20°C° 0 mm 0 mps 690 mmHg 93%
    08:00 +21°C° 0 mm 0 mps 690 mmHg 90%
    09:00 +25°C° 0 mm 1 mps 690 mmHg 80%
    10:00 +27°C° 0 mm 1 mps 691 mmHg 69%
    11:00 +30°C° 0 mm 1 mps 691 mmHg 58%
    12:00 +31°C° 0.1 mm 1 mps 690 mmHg 54%
    13:00 +32°C° 0.1 mm 1 mps 689 mmHg 50%
    14:00 +31°C° 0.1 mm 0 mps 689 mmHg 46%
    15:00 +30°C° 0.8 mm 1 mps 688 mmHg 61%
    16:00 +28°C° 0.8 mm 1 mps 687 mmHg 75%
    17:00 +25°C° 0.8 mm 1 mps 686 mmHg 90%
    18:00 +24°C° 0.9 mm 1 mps 687 mmHg 92%
    19:00 +23°C° 0.9 mm 1 mps 687 mmHg 94%
    20:00 +19°C° 0.9 mm 0 mps 688 mmHg 96%
    21:00 +19°C° 0.4 mm 0 mps 688 mmHg 97%
    22:00 +19°C° 0.4 mm 0 mps 689 mmHg 97%
    23:00 +19°C° 0.4 mm 0 mps 689 mmHg 98%

    26 August, Monday

    Time Temperature Precipitation Wind Pressure Humidity
    00:00 +19°C° 0.7 mm 0 mps 689 mmHg 98%
    01:00 +18°C° 0.7 mm 0 mps 689 mmHg 98%
    02:00 +18°C° 0.7 mm 0 mps 688 mmHg 98%
    03:00 +18°C° 1 mm 0 mps 688 mmHg 99%
    04:00 +18°C° 1 mm 0 mps 688 mmHg 99%
    05:00 +18°C° 1 mm 0 mps 689 mmHg 99%
    06:00 +19°C° 0.4 mm 0 mps 689 mmHg 98%
    07:00 +19°C° 0.4 mm 0 mps 690 mmHg 98%
    08:00 +20°C° 0.4 mm 0 mps 690 mmHg 97%
    09:00 +21°C° 0.8 mm 0 mps 691 mmHg 95%
    10:00 +22°C° 0.8 mm 0 mps 691 mmHg 94%
    11:00 +25°C° 0.8 mm 1 mps 691 mmHg 92%
    12:00 +25°C° 1.5 mm 1 mps 690 mmHg 92%
    13:00 +25°C° 1.5 mm 1 mps 689 mmHg 92%
    14:00 +26°C° 1.5 mm 1 mps 689 mmHg 91%
    15:00 +25°C° 1.2 mm 1 mps 688 mmHg 92%
    16:00 +25°C° 1.2 mm 1 mps 688 mmHg 93%
    17:00 +24°C° 1.2 mm 1 mps 688 mmHg 94%
    18:00 +24°C° 0.3 mm 1 mps 688 mmHg 95%
    19:00 +21°C° 0.3 mm 0 mps 689 mmHg 96%
    20:00 +20°C° 0.3 mm 0 mps 689 mmHg 97%
    21:00 +20°C° 0.1 mm 0 mps 690 mmHg 98%
    22:00 +20°C° 0.1 mm 0 mps 690 mmHg 98%
    23:00 +19°C° 0.1 mm 0 mps 690 mmHg 98%

    27 August, Tuesday

    Time Temperature Precipitation Wind Pressure Humidity
    00:00 +19°C° 0.7 mm 0 mps 690 mmHg 98%
    01:00 +21°C° 0.7 mm 1 mps 689 mmHg 98%
    02:00 +21°C° 0.7 mm 1 mps 689 mmHg 98%
    03:00 +21°C° 0 mm 1 mps 689 mmHg 99%
    04:00 +18°C° 0 mm 0 mps 689 mmHg 99%
    05:00 +18°C° 0 mm 0 mps 689 mmHg 99%
    06:00 +19°C° 0 mm 0 mps 690 mmHg 98%
    07:00 +19°C° 0 mm 0 mps 691 mmHg 96%
    08:00 +20°C° 0 mm 0 mps 691 mmHg 95%
    09:00 +23°C° 0.5 mm 1 mps 691 mmHg 91%
    10:00 +24°C° 0.5 mm 1 mps 691 mmHg 88%
    11:00 +25°C° 0.5 mm 1 mps 691 mmHg 84%
    12:00 +26°C° 1.2 mm 1 mps 690 mmHg 85%
    13:00 +26°C° 1.2 mm 1 mps 689 mmHg 87%
    14:00 +26°C° 1.2 mm 1 mps 689 mmHg 89%
    15:00 +26°C° 1.3 mm 1 mps 689 mmHg 91%
    16:00 +25°C° 1.3 mm 1 mps 688 mmHg 93%
    17:00 +25°C° 1.3 mm 1 mps 688 mmHg 95%
    18:00 +22°C° 0.7 mm 0 mps 689 mmHg 96%
    19:00 +20°C° 0.7 mm 0 mps 689 mmHg 97%
    20:00 +19°C° 0.7 mm 0 mps 689 mmHg 97%
    21:00 +19°C° 1 mm 0 mps 690 mmHg 98%
    22:00 +19°C° 1 mm 0 mps 690 mmHg 98%
    23:00 +19°C° 1 mm 0 mps 690 mmHg 98%

    28 August, Wednesday

    Time Temperature Precipitation Wind Pressure Humidity
    00:00 +19°C° 1.4 mm 0 mps 690 mmHg 98%
    01:00 +19°C° 1.4 mm 0 mps 689 mmHg 99%
    02:00 +18°C° 1.4 mm 0 mps 689 mmHg 99%
    03:00 +18°C° 0.9 mm 0 mps 689 mmHg 99%
    04:00 +18°C° 0.9 mm 0 mps 689 mmHg 99%
    05:00 +18°C° 0.9 mm 0 mps 690 mmHg 99%
    06:00 +19°C° 0.6 mm 0 mps 690 mmHg 98%
    07:00 +19°C° 0.6 mm 0 mps 691 mmHg 98%
    08:00 +20°C° 0.6 mm 0 mps 691 mmHg 97%
    09:00 +21°C° 0.9 mm 0 mps 691 mmHg 95%
    10:00 +23°C° 0.9 mm 1 mps 691 mmHg 93%
    11:00 +24°C° 0.9 mm 1 mps 691 mmHg 91%
    12:00 +25°C° 0.6 mm 1 mps 691 mmHg 86%
    13:00 +26°C° 0.6 mm 1 mps 690 mmHg 80%
    14:00 +27°C° 0.6 mm 1 mps 689 mmHg 75%
    15:00 +26°C° 1.1 mm 1 mps 689 mmHg 81%
    16:00 +26°C° 1.1 mm 1 mps 688 mmHg 87%
    17:00 +25°C° 1.1 mm 1 mps 688 mmHg 93%
    18:00 +22°C° 0.4 mm 0 mps 688 mmHg 94%
    19:00 +21°C° 0.4 mm 0 mps 689 mmHg 96%
    20:00 +19°C° 0.4 mm 0 mps 689 mmHg 97%
    21:00 +19°C° 0.2 mm 0 mps 689 mmHg 97%
    22:00 +19°C° 0.2 mm 0 mps 689 mmHg 98%
    23:00 +19°C° 0.2 mm 0 mps 690 mmHg 98%
    Show more